Jordan, MT

7:51 AM MST on February 20, 2017 (GMT -0700)
Jordan

Weather History for KJDN - February, 2013

Change the Weather History Date:

Sunday, February 10, 2013

  Actual Average Record
Temperature  
Mean Temperature 22 °F 21 °F  
Max Temperature 31 °F 33 °F 62 °F (1961)
Min Temperature 12 °F 9 °F -43 °F (1939)
Degree Days  
Heating Degree Days 43 44  
Month to date heating degree days 320 449  
Since 1 July heating degree days 4811 5379  
Cooling Degree Days 0 0  
Month to date cooling degree days 0 0  
Year to date cooling degree days 0 0  
Moisture  
Dew Point 19 °F    
Average Humidity 83    
Maximum Humidity 92    
Minimum Humidity 74    
Precipitation  
Precipitation 0.01 in 0.00 in 0.08 in (2008)
Month to date precipitation 0.02 0.07  
Year to date precipitation 0.35 0.30  
Snow  
Snow 0.00 in - - ()
Month to date snowfall 0.0  
Since 1 July snowfall 0.0  
Snow Depth 0.00 in    
Sea Level Pressure  
Sea Level Pressure 30.11 in    
Wind  
Wind Speed 15 mph (NW)    
Max Wind Speed 26 mph    
Max Gust Speed 31 mph    
T = Trace of Precipitation, MM = Missing Value Source: NWS Daily Summary

Daily Weather History Graph

Daily Weather History Graph

Search for Another Location

Airport or City:

Trip Planner

Search our weather history database for the weather conditions in past years. The results will help you decide how hot, cold, wet, or windy it might be!

Date:

Astronomy

Feb. 10, 2013 Rise Set
Actual Time 7:20 AM MST 5:24 PM MST
Civil Twilight 6:48 AM MST 5:56 PM MST
Nautical Twilight 6:12 AM MST 6:32 PM MST
Astronomical Twilight 5:36 AM MST 7:07 PM MST
Moon 7:06 AM MST (2/10) 6:25 PM MST (2/10)
Length of Visible Light 11h 07m
Length of Day
10h 04m
New Moon, 0% of the Moon is Illuminated
Feb 10
New Moon
Feb 17
First Quarter
Feb 25
Full
Mar 4
Last Quarter
Mar 11
New

Hourly Weather History & Observations

Time (MST) Temp. Windchill Dew Point Humidity Pressure Visibility Wind Dir Wind Speed Gust Speed Precip Events Conditions
12:48 AM 28.9 °F 20.4 °F 27.0 °F 92% 29.95 in - WNW 9.2 mph - N/A   Unknown
1:48 AM 28.9 °F 20.4 °F 27.0 °F 92% 29.95 in - NW 9.2 mph - N/A   Unknown
2:48 AM 30.0 °F 21.7 °F 26.1 °F 85% 29.95 in - NW 9.2 mph - N/A   Unknown
3:48 AM 28.9 °F 18.2 °F 26.1 °F 89% 29.96 in - NW 13.8 mph - N/A   Unknown
4:48 AM 28.9 °F 17.7 °F 26.1 °F 89% 29.99 in - NW 15.0 mph - N/A   Unknown
5:48 AM 28.0 °F 16.1 °F 25.0 °F 88% 30.01 in - NW 16.1 mph - N/A   Unknown
6:48 AM 27.0 °F 14.3 °F 23.0 °F 85% 30.03 in - NNW 17.3 mph - N/A   Unknown
7:48 AM 26.1 °F 13.6 °F 21.9 °F 84% 30.06 in - NW 16.1 mph - 0.01 in   Unknown
8:48 AM 25.0 °F 10.6 °F 21.0 °F 85% 30.07 in - NW 20.7 mph - N/A   Unknown
9:48 AM 25.0 °F 10.9 °F 21.0 °F 85% 30.09 in - NW 19.6 mph - N/A   Unknown
10:48 AM 25.0 °F 10.2 °F 19.9 °F 81% 30.11 in - NNW 21.9 mph - N/A   Unknown
11:48 AM 25.0 °F 10.6 °F 19.0 °F 78% 30.12 in - NNW 20.7 mph 27.6 mph N/A   Unknown
12:48 PM 24.1 °F 10.1 °F 17.1 °F 75% 30.13 in - NW 18.4 mph 28.8 mph N/A   Unknown
1:48 PM 23.0 °F 8.7 °F 18.0 °F 81% 30.14 in - NNW 18.4 mph - N/A   Unknown
2:48 PM 23.0 °F 8.0 °F 16.0 °F 74% 30.14 in - NNW 20.7 mph 26.5 mph N/A   Unknown
3:48 PM 21.0 °F 6.6 °F 16.0 °F 81% 30.17 in - NW 17.3 mph 26.5 mph N/A   Unknown
4:48 PM 19.9 °F 4.3 °F 15.1 °F 81% 30.17 in - NW 19.6 mph - N/A   Unknown
5:48 PM 19.0 °F 3.6 °F 14.0 °F 81% 30.19 in - NW 18.4 mph - N/A   Unknown
6:48 PM 19.0 °F 5.6 °F 14.0 °F 81% 30.20 in - NW 13.8 mph - N/A   Unknown
7:48 PM 19.0 °F 5.6 °F 14.0 °F 81% 30.22 in - NW 13.8 mph - N/A   Unknown
8:48 PM 19.0 °F 9.0 °F 14.0 °F 81% 30.25 in - NNW 8.1 mph - N/A   Unknown
9:48 PM 18.0 °F 6.1 °F 14.0 °F 84% 30.25 in - NNW 10.4 mph - N/A   Unknown
10:48 PM 18.0 °F 7.7 °F 12.9 °F 81% 30.24 in - NW 8.1 mph - N/A   Unknown
11:48 PM 14.0 °F 5.1 °F 10.9 °F 88% 30.24 in - NW 5.8 mph - N/A   Unknown